This demonstration page uses our WeatherBlox Daily Observations layout. Learn more.

Left ArrowRight Arrow

34.74481, -87.66753

Hourly Observations for August 16, 2015

Temp ( °F °C ) Dew Point ( °F °C ) Humidity (%) Winds ( mph kmh ) Pressure ( in mb ) Visibility ( mi km ) Precip ( " mm )
12:46 am 00:46 Mostly Cloudy with Mist and Fog 70 21.1 68 20 93 93 Calm 30.09 1019 3 4 0.00 0.00
12:53 am 00:53 Mostly Cloudy with Mist and Fog 71 21.7 68 20 90 90 Calm 30.11 1020 5 8 0.00 0.00
1:04 am 01:04 Cloudy with Mist and Fog 70 21.1 68 20 93 93 Calm 30.09 1019 2 2 0.00 0.00
1:22 am 01:22 Mostly Cloudy with Mist and Fog 71 21.7 68 20 90 90 Calm 30.09 1019 3 4 0.00 0.00
1:46 am 01:46 Mostly Cloudy with Mist and Fog 70 21.1 68 20 93 93 Calm 30.09 1019 2 2 0.00 0.00
1:53 am 01:53 Mostly Cloudy with Mist and Fog 70 21.1 68 20 93 93 Calm 30.10 1019 3 4 0.00 0.00
2:01 am 02:01 Mostly Cloudy 70 21.1 68 20 93 93 Calm 30.09 1019 7 11 0.00 0.00
2:53 am 02:53 Cloudy with Mist and Fog 71 21.7 68 20 90 90 Calm 30.10 1019 6 10 0.00 0.00
3:53 am 03:53 Mostly Cloudy with Mist and Fog 71 21.7 68 20 90 90 Calm 30.09 1019 6 10 0.00 0.00
4:53 am 04:53 Mostly Clear with Mist and Fog 71 21.7 69 20.6 94 94 Calm 30.10 1019 6 10 0.00 0.00
5:53 am 05:53 Partly Cloudy with Mist and Fog 71 21.7 69 20.6 94 94 Calm 30.11 1020 5 8 0.00 0.00
6:53 am 06:53 Partly Cloudy with Mist and Fog 71 21.7 69 20.6 94 94 ENE 3 6 30.12 1020 4 6 0.00 0.00
7:53 am 07:53 Cloudy with Light Rain 73 22.8 70 21.1 90 90 E 5 7 30.14 1021 7 11 0.03 0.76
8:53 am 08:53 Partly Cloudy 74 23.3 70 21.1 88 88 E 3 6 30.14 1021 7 11 0.00 0.03
9:53 am 09:53 Sunny 76 24.4 70 21.1 82 82 E 5 7 30.15 1021 8 13 0.00 0.00
10:53 am 10:53 Sunny 77 25 71 21.7 82 82 Calm 30.15 1021 9 14 0.00 0.00
11:53 am 11:53 Sunny 79 26.1 72 22.2 79 79 E 6 9 30.15 1021 9 14 0.00 0.00
12:53 pm 12:53 Mostly Sunny 79 26.1 72 22.2 79 79 ENE 7 11 30.14 1021 9 14 0.00 0.00
1:53 pm 13:53 Sunny 84 28.9 69 20.6 61 61 ENE 8 13 30.10 1019 10 16 0.00 0.00
2:53 pm 14:53 Sunny 86 30 71 21.7 61 61 VRB 5 7 30.06 1018 10 16 0.00 0.00
3:53 pm 15:53 Mostly Sunny 86 30 70 21.1 59 59 ENE 6 9 30.05 1018 10 16 0.00 0.00
4:53 pm 16:53 Mostly Sunny 86 30 70 21.1 59 59 E 5 7 30.05 1018 10 16 0.00 0.00
5:53 pm 17:53 Sunny 82 27.8 68 20 63 63 ENE 7 11 30.05 1018 10 16 0.00 0.00
6:53 pm 18:53 Sunny 79 26.1 66 18.9 65 65 E 9 15 30.07 1018 10 16 0.00 0.00
7:53 pm 19:53 Mostly Cloudy 76 24.4 70 21.1 82 82 Calm 30.09 1019 10 16 0.00 0.03
8:53 pm 20:53 Partly Cloudy 74 23.3 69 20.6 85 85 N 3 6 30.10 1019 10 16 0.00 0.00
9:53 pm 21:53 Clear 74 23.3 70 21.1 88 88 SSE 5 7 30.10 1019 10 16 0.00 0.00
10:53 pm 22:53 Clear 74 23.3 70 21.1 88 88 NE 3 6 30.08 1019 9 14 0.00 0.00
11:53 pm 23:53 Mostly Clear 73 22.8 70 21.1 90 90 Calm 30.08 1019 9 14 0.01 0.25

Powered by AerisWeather